Location: Heidgraben
(53.7081°N, 9.6576°E)
Time: 04:35:14
(UTC+00:00)

ISS - Visible Passes

Search period start: 25 September 2020 00:00
Search period end: 05 October 2020 00:00
Orbit: 419 x 420 km, 51.6° (Epoch: 25 September)

Date Brightness Start Highest point End Pass type
(mag) Time Alt. Az. Time Alt. Az. Time Alt. Az.
25 Sep -3.7 18:58:06 10° W 19:01:27 62° S 19:02:10 47° SE visible
25 Sep -0.6 20:34:51 10° W 20:35:07 12° W 20:35:07 12° W visible
26 Sep -3.5 18:10:45 10° WSW 18:14:05 60° S 18:16:31 17° E visible
26 Sep -2.2 19:47:27 10° W 19:49:29 31° WSW 19:49:29 31° WSW visible
27 Sep -3.5 19:00:03 10° W 19:03:22 55° S 19:03:50 49° SSE visible
28 Sep -3.5 18:12:39 10° W 18:15:59 60° S 18:18:10 20° ESE visible
28 Sep -1.6 19:49:28 10° W 19:51:08 22° WSW 19:51:08 22° WSW visible
29 Sep -3.0 19:02:00 10° W 19:05:10 39° SSW 19:05:29 38° S visible
30 Sep -3.1 18:14:33 10° W 18:17:49 47° SSW 18:19:50 20° SE visible
30 Sep -1.1 19:51:44 10° WSW 19:52:48 15° WSW 19:52:48 15° WSW visible
01 Oct -3.3 17:27:06 10° W 17:30:25 55° S 17:33:44 10° ESE visible
01 Oct -2.1 19:04:03 10° W 19:06:50 24° SSW 19:07:12 23° SSW visible
02 Oct -2.3 18:16:29 10° W 18:19:31 31° SSW 18:21:38 16° SSE visible
03 Oct -2.6 17:28:58 10° W 17:32:09 39° SSW 17:35:19 10° SE visible
03 Oct -1.1 19:06:41 10° WSW 19:08:18 13° SW 19:09:05 12° SSW visible
04 Oct -1.4 18:18:40 10° WSW 18:21:02 18° SW 18:23:24 10° S visible
